Home   Weather   Leibnitz   Past weeks

Flag for Austria Past Weather in Leibnitz, Styria, Austria — Yesterday and Last 2 Weeks

Now
75 °F

Passing clouds.


Feels Like: 78 °F
Forecast: 58 / 75 °F
Wind: N/A

Location: Graz-Thalerhof-Flughafen

Current Time: Aug 30, 2016 at 7:20:37 PM

Latest Report: Aug 30, 2016 at 6:00 PM


Visibility: 25 mi

Pressure: 30.14 "Hg

Humidity: 52%

Dew Point: 56 °F

Location of LeibnitzLocation

Past Weather in Leibnitz — Graph

°F

Leibnitz Temperature Yesterday

Maximum temperature yesterday: 84 °F (at 1:00 PM)
Minimum temperature yesterday: 61 °F (at 6:00 AM)
Average temperature yesterday: 68 °F

High & Low Weather Summary for the Past Weeks

 TemperatureHumidityPressure
High84 °F (Aug 29, 1:00 PM)100% (Aug 16, 4:00 AM)30.35 "Hg (Aug 16, 4:00 AM)
Low50 °F (Aug 23, 6:00 AM)37% (Aug 23, 2:00 PM)29.82 "Hg (Aug 18, 5:00 PM)
Average66 °F78%30.08 "Hg
* Reported Aug 15 6:00 PM — Aug 30 6:00 PM, Leibnitz, Weather by CustomWeather, © 2016

Note: Actual official high and low records may vary slightly from our data, if they occured in-between our weather recording intervals... More about our weather records

Advertising

Leibnitz Weather History for the Previous 24 Hours

Scroll right to see more
 ConditionsComfort  
Time TempWeatherWind HumidityBarometerVisibility
6:00 PM
Tue, Aug 30
75 °FPassing clouds.N/A52%30.14 "Hg25 mi
5:00 PM75 °FScattered clouds.N/A55%30.14 "Hg19 mi
4:00 PM73 °FPartly sunny.N/A74%30.16 "Hg19 mi
3:00 PM68 °FOvercast.N/A84%30.18 "Hg17 mi
2:00 PM76 °FOvercast.N/A47%30.16 "Hg25 mi
1:00 PM76 °FPartly sunny.N/A55%30.16 "Hg19 mi
12:00 PM74 °FPartly sunny.N/A56%30.17 "Hg17 mi
11:00 AM73 °FPassing clouds.N/A64%30.17 "Hg17 mi
10:00 AM69 °FScattered clouds.N/A79%30.18 "Hg14 mi
9:00 AM65 °FOvercast.N/A90%30.18 "Hg19 mi
8:00 AM63 °FOvercast.N/A90%30.16 "Hg28 mi
7:00 AM61 °FOvercast.N/A98%30.16 "Hg9 mi
6:00 AM61 °FOvercast.N/A96%30.14 "Hg12 mi
5:00 AM62 °FOvercast.N/A93%30.14 "Hg14 mi
4:00 AM61 °FOvercast.N/A95%30.13 "Hg22 mi
3:00 AM61 °FOvercast.N/A96%30.13 "Hg25 mi
2:00 AM60 °FOvercast.N/A97%30.12 "Hg14 mi
1:00 AM62 °FOvercast.N/A95%30.10 "Hg22 mi
12:00 AM62 °FOvercast.N/A94%30.11 "Hg28 mi
11:00 PM
Mon, Aug 29
63 °FRain showers. Overcast.N/A89%30.11 "Hg22 mi
10:00 PM64 °FRain showers. Overcast.N/A87%30.11 "Hg19 mi
9:00 PM65 °FRain showers. Overcast.6 mph90%30.09 "Hg22 mi
8:00 PM65 °FSprinkles. Overcast.5 mph95%30.09 "Hg6 mi
7:00 PM66 °FRain showers. Overcast.N/A92%30.08 "Hg19 mi
Weather by CustomWeather, © 2016

See weather overviewHow to use our weather pages